Location: Fensholt
(55.9856°N, 10.0808°E)
Time: 20:33:24
(UTC+00:00)

In-Cosmos 22 Rocket - Pass Details

Date: 07 June 2020
Orbit: 790 x 888 km, 81.2° (Epoch: 11 July)

Event Time Altitude Azimuth Distance (km) Brightness Sun altitude
Exits shadow 01:30:55 - 182° (S) 3,028 6.5 -6.4°
Reaches altitude 10° 01:32:24 10° 181° (S) 2,458 6.1 -6.3°
Maximum altitude 01:37:55 67° 100° (E) 895 4.5 -5.9°
Drops below altitude 10° 01:43:19 10° 18° (NNE) 2,411 8.2 -5.5°
Sets 01:45:42 0° 16° (NNE) 3,335 9.1 -5.3°
